www.pogodaiklimat.ru

Погода и климат >> Архив погоды >> Иран >> Bandar Deyr


ПОГОДА в Bandar Deyr

  • Прогноз погоды в Bandar Deyr
  • Монитор погоды в Bandar Deyr
  • Климат города

АРХИВ ПОГОДЫ в Bandar Deyr

Время (UTC), дата Ветер
(напр.,м/с)
 
Видим.   Явления Облачность Т
(С)
Тd
(С)
f
(%)
Тe
(С)
Тes
(С)
Комфортность P
(гПа)
Po
(гПа)
Тmin
(С)
Tmax
(С)
R
(мм)
R24
(мм)
S
(см)
03 11.10 С 2 7000 м мгла ясно +26.6 +15.4 50 +29 +29 жарко 1010.2 1009.8 +26.4
06 11.10 ЮЗ 1 8000 м мгла ясно +35.0 1011.2 1010.8
09 11.10 ЮЗ 2 8000 м мгла ясно +35.2 +22.8 49 +45 +59 опасность
перегрева
1009.8 1009.4
12 11.10 ЮЗ 3 8000 м мгла ясно +34.4 1009.0 1008.6
15 11.10 штиль 0 8000 м мгла ясно +32.4 +25.1 65 +46 +46 опасность
перегрева
1009.7 1009.2 +35.7
18 11.10 штиль 0 8000 м мгла ясно +30.4 +24.7 72 +43 +43 опасность
перегрева
1011.0 1010.6
21 11.10 штиль 0 8000 м мгла ясно +29.2 +23.1 70 +39 +39 очень
душно
1010.4 1010.0
00 12.10 С 2 10 км ясно +28.6 +21.5 65 +36 +36 очень
душно
1009.8 1009.4
03 12.10 С 2 8000 м мгла ясно +26.8 +21.4 72 +34 +34 очень
душно
1010.9 1010.5 +26.6
06 12.10 штиль 0 8000 м мгла ясно +33.0 +23.6 58 1012.5 1012.1
09 12.10 Ю 3 8000 м мгла ясно +33.4 +25.9 65 +49 +60 опасность
перегрева
1011.6 1011.1
12 12.10 Ю 3 8000 м мгла 1/1 600 м
[Cu med, cong]
+33.8 +26.1 64 +50 +53 опасность
перегрева
1010.6 1010.1
15 12.10 Ю 1 8000 м мгла ясно +32.0 +24.7 65 +45 +45 опасность
перегрева
1011.2 1010.7 +34.1
18 12.10 СВ 1 8000 м мгла ясно +30.8 +24.1 68 +43 +43 опасность
перегрева
1012.2 1011.7
21 12.10 С 1 8000 м мгла ясно +30.0 +23.8 69 +41 +41 опасность
перегрева
1011.7 1011.2
00 13.10 С 2 8000 м мгла ясно +27.8 +23.0 75 +37 +37 очень
душно
1011.9 1011.4
03 13.10 С 2 8000 м мгла ясно +27.4 +22.8 76 +36 +36 очень
душно
1012.3 1011.8 +27.3
06 13.10 СЗ 1 7000 м мгла ясно +33.9 1013.7 1013.2
09 13.10 ЮЗ 3 7000 м мгла ясно +34.8 +23.0 50 +45 +56 опасность
перегрева
1012.3 1011.8
12 13.10 ЮЗ 3 7000 м мгла ясно +34.0 1011.7 1011.2
15 13.10 Ю 1 7000 м мгла ясно +32.2 +24.0 62 +44 +44 опасность
перегрева
1012.4 1011.9 +35.7
18 13.10 СВ 3 7000 м пыль 3/0
[Ac trans]
+33.1 +15.3 34 +35 +35 душно 1013.7 1013.2
21 13.10 СЗ 2 7000 м мгла 3/0
[Ac trans]
+30.9 +13.2 34 +32 +32 жарко 1012.4 1011.9
00 14.10 СЗ 1 7000 м мгла 1/0
[Ac trans]
+28.2 +14.4 43 +30 +30 жарко 1012.0 1011.5
06 14.10 С 2 8000 м мгла ясно +34.2 1014.5 1014.0
09 14.10 Ю 2 10 км ясно +35.0 +20.9 44 +42 +56 опасность
перегрева
1013.0 1012.5
12 14.10 Ю 3 10 км 1/1 600 м
[Cu hum]
+34.4 1012.2 1011.7
15 14.10 Ю 2 8000 м мгла ясно +32.6 +23.1 57 +43 +43 опасность
перегрева
1012.3 1011.8 +35.7
18 14.10 СВ 2 8000 м мгла ясно +30.6 +23.4 65 +41 +41 опасность
перегрева
1013.8 1013.3
21 14.10 С 2 8000 м мгла ясно +29.8 +21.3 60 +37 +37 очень
душно
1013.4 1012.9
00 15.10 С 2 8000 м мгла ясно +27.6 +21.0 67 +35 +35 очень
душно
1012.5 1012.0
03 15.10 СЗ 2 8000 м мгла ясно +26.6 +20.9 71 +33 +33 очень
душно
1013.2 1012.7 +25.7
06 15.10 С 2 8000 м мгла ясно +31.8 +23.9 63 1013.8 1013.3
09 15.10 Ю 4 8000 м мгла ясно +33.3 +25.5 64 +48 +57 опасность
перегрева
1013.7 1013.3
12 15.10 СВ 6 6000 м гроза без осадков {дождь} 9/3 600 м
[Cb cap Ac As]
+24.9 +21.3 80 +31 +32 очень
душно
1012.5 1012.1 10
15 15.10 С 2 6000 м пыль {гроза} ясно +26.5 +19.4 65 +32 +32 очень
душно
1012.5 1012.1 +33.6
18 15.10 СЗ 1 6000 м пыль ясно +25.0 +19.8 73 +31 +31 очень
душно
1013.3 1012.9
00 16.10 С 2 6000 м пыль ясно +25.8 +16.6 57 +29 +29 душно 1012.3 1011.9
03 16.10 С 1 6000 м мгла ясно +22.2 +17.0 72 +27 +27 душно 1012.7 1012.3 +21.6
06 16.10 штиль 0 8000 м мгла ясно +29.0 1013.9 1013.5
09 16.10 СЗ 3 10 км ясно +35.8 +15.6 30 +38 +49 очень
душно
1012.0 1011.6
12 16.10 СЗ 3 10 км ясно +36.6 1010.5 1010.0
15 16.10 штиль 0 10 км ясно +32.2 +18.4 44 +37 +37 очень
душно
1010.9 1010.5 +37.1
18 16.10 штиль 0 10 км ясно +29.2 +19.9 57 +35 +35 очень
душно
1012.3 1011.9
21 16.10 штиль 0 10 км ясно +27.4 +19.8 63 +33 +33 очень
душно
1011.9 1011.5
00 17.10 СЗ 2 10 км ясно +26.0 +18.8 65 +31 +31 очень
душно
1011.4 1010.9
03 17.10 С 2 10 км ясно +25.6 +18.1 63 +30 +30 душно 1012.8 1012.3 +24.6
06 17.10 ЮВ 6 7000 м пыль ясно +32.4 1013.7 1013.2
09 17.10 ЮВ 6 7000 м пыль 3/3 750 м
[Cu med, cong]
+32.8 +24.9 63 +46 +50 опасность
перегрева
1013.0 1012.5
12 17.10 Ю 4 10 км 1/1 600 м
[Cu hum]
+32.6 1011.1 1010.7
15 17.10 ЮЗ 2 8000 м мгла ясно +31.4 +22.8 60 +41 +41 опасность
перегрева
1011.3 1010.9 +33.3
18 17.10 В 3 8000 м гроза без осадков 9/3 750 м
[Cb cap Ac As]
+30.2 +21.3 59 +38 +38 очень
душно
1012.5 1012.0
21 17.10 З 2 8000 м мгла {гроза} 8/3 1050 м
[Sc Ac As]
+29.6 +14.1 39 +32 +32 душно 1011.8 1011.3
00 18.10 СЗ 2 10 км ясно +27.0 +14.8 47 +30 +30 душно 1011.0 1010.6

 

Местоположение метеостанции Bandar Deyr (Иран): широта 27.83 долгота 51.93 высота над уровнем моря 4 м.

В архиве по умолчанию представлена погода в Bandar Deyr за последнюю неделю. Архивные данные за месяц целиком и за предыдущие месяцы, начиная с января 2011 года, Вы можете получить, выбрав интересующий диапазон дат из раскрывающегося списка и нажав кнопку "Ввод!".


*Определитесь, кто Вы:
робот инопланетянин человек

Внимание! Время в таблицах - всемирное. Для получения местного времени необходимо прибавить поправку, которая в Bandar Deyr равна 3.5 ч.

Смотрите также архив погоды в соседних городах и на ближайших метеорологических станциях:

Погода в Bushehr (Иран) (163 км)
Погода в Bushehr Airport (Иран) (167 км)
Погода в Shiraz (Иран) (198 км)
Погода в Fasa (Иран) (213 км)
Погода в Bahrain (Бахрейн) (215 км)
Погода в Khark (Иран) (224 км)
Погода в Dhahran (Саудовская Аравия) (246 км)
Погода в Kish Island (Иран) (251 км)
Погода в King Fahd Int Airport (Саудовская Аравия) (259 км)
Погода в Hamad Int Airport (Катар) (287 км)

Пояснения к столбцам:

Ветер - указаны скорость ветра в м/с - средняя за 10 мин, порывы в срок и между сроками (в фигурных скобках) и направление, откуда дует ветер: С - северный, СВ - северо-восточный, В - восточный, ЮВ - юго-восточный, Ю - южный, ЮЗ - юго-западный, З - западный, СЗ - северо-западный.
Видимость - горизонтальная дальность видимости в метрах или километрах. При видимости от 1 до 10 км при отсутствии осадков обычно наблюдается дымка, при ухудшении видимости до 1 км и менее - туман. В сухую погоду видимость может ухудшаться дымом, пылью или мглою.
Явления - указаны атмосферные явления, наблюдавшиеся в срок или в последний час перед сроком; фигурными скобками обозначены явления, наблюдавшиеся между сроками (за 1-3 часа до срока); квадратными скобками обозначены град или гололедные отложения с указанием их диаметра в мм.
Облачность - указаны через наклонную черту общая и нижняя облачность в баллах и высота нижней границы облаков в метрах; квадратными скобками обозначены формы облаков: Ci - перистые, Cs - перисто-слоистые, Cc - перисто-кучевые, Ac - высококучевые, As - высокослоистые, Sc - слоисто-кучевые, Ns - слоисто-дождевые, Cu - кучевые, Cb - кучево-дождевые. Подробнее классификацию облаков см. в Атласе облаков (PDF).
T - Температура воздуха - температура, измеренная на высоте 2 м над землей.
Td - Температура точки росы - температура, при понижении до которой содержащийся в воздухе водяной пар достигнет насыщения.
f - Относительная влажность воздуха - влажноcть воздуха, измеренная на высоте 2 м над землей.
Te - Эффективная температура - температура, которую ощущает одетый по сезону человек в тени. Характеристика душности погоды. При расчете учитывается влияние влажности воздуха и скорости ветра на теплоощущения человека.
Tes - Эффективная температура на солнце - температура, которую ощущает человек, с поправкой на солнечный нагрев. Характеристика знойности погоды. Зависит от высоты солнца над горизонтом, облачности и скорости ветра. Ночью, в пасмурную погоду, а также при ветре 12 м/с и более поправка равна нулю.
P - Атмосферное давление - приведенное к уровню моря атмосферное давление.
Po - Атмосферное давление - измеренное на уровне метеостанции атмосферное давление.
Tmin - Минимальная температура - минимум температуры воздуха на высоте 2 м над землей.
Tmax - Максимальная температура - максимум температуры воздуха на высоте 2 м над землей.
R - Количество осадков - Количество выпавших осадков за период времени, мм. При наведении курсора мыши на число - период времени, за который выпало указанное количество осадков.
R24 - Количество осадков - Количество выпавших осадков за 24 часа, мм.
S - Снежный покров - Высота снежного покрова, см. При наведении курсора мыши на число - состояние снежного покрова и степень покрытия местности в баллах.